DMSP 5D-2 F13 DEB, 40577

Orbit data source: Space-Track

DMSP 5D-2 F13 DEB, 40577 is space debris in SSO originally from a launch on Fri, 24 Mar 1995 UTC launched from the Air Force Western Test Range (AFWTR). Debris objects in space refer to the collection of defunct objects orbiting the Earth. Examples of debris include non-operational satellites, rocket bodies, and fragments generated from explosions, collisions, or faulty payload assembly.

Loading next visibility...
Identifier
40577, 1995-015EL
Orbit
SSO
Last TLE update
1 day ago
Origin
Manufacturer
Unknown
Mission
Spacecraft
Bus & Motor
Unknown
Mass
Unknown
Launch date (UTC)
1995-03-24 (30 years ago)
Launch vehicle
Unknown
Launch site
Air Force Western Test Range (AFWTR)
Object type
Payload
Rocket body
Debris
Shape & HBR
Unknown
Radar Cross Section
Small (<0.1 m²)

Expand to show TLE details & history

TLE from 1 day ago
0 DMSP 5D-2 F13 DEB
1 40577U 95015EL  25191.06102868  .00004744  00000-0  13423-2 0  9996
2 40577  98.6656 228.1973 0015514 116.1299 244.1490 14.45986425534039
Epoch: 2025-07-10T01:27Z
TLE epoch observation values (Epoch: 2025-07-10T01:27:52.877Z)
Latitude
-0.00005°
Longitude
-82.00573°
Altitude
746.568 km
Speed
7.479 km/s
True Right ascension
15h 12m 47s
True Declination
0° 00' 00"
Sunlit
Object was in partial shadow at epoch
Visualization orbit readout
Latitude
-18.89072°
Longitude
-77.6931°
Altitude
753.261 km
Speed
7.473 km/s
Apparent Right ascension
13h 00m 31s
Apparent Declination
-38° 20' 48"
Sunlit
Object is in full shadow
Visualization observer readout
Local Sidereal Time
21:13:27
Azimuth
253.041° W
Elevation
-46.7°
Doppler factor
1
Orbital elements
Apogee altitude
746.946 km
Perigee altitude
724.873 km
Semi-major axis
7,114.046 km
Eccentricity
0.00155
Inclination
98.6656°
RAAN
228.1973°
Arg. of periapsis
116.1299°
True anomaly
Unknown
Mean anomaly
244.149°
Eccentric anomaly
Unknown
Mean motion
3.61716 °/min
Orbital period
99.53 mins
BSTAR
0.0013423
Loading maneuver chart data...
Loading SW <> Apogee altitude chart data...

DMSP 5D-2 F13 DEB Visibility forecast

Observer location: undefined°, undefined°

Span
Click to sort rows by Start time (UTC) header in descending order
Start Az.
Max El. time (UTC)
Max El. Az.
Max El.
End time (UTC)
End Az.
7 mins2025-07-11 14:35:49.886Z44.944° NE2025-07-11 14:38:49.886Z91.958° ESE24.949°2025-07-11 14:42:49.886Z152.606° SSE
6 mins2025-07-11 16:14:49.886Z339.102° N2025-07-11 16:17:49.886Z281.968° WNW26.691°2025-07-11 16:20:49.886Z236.9° WSW
6 mins2025-07-12 01:46:49.886Z119.05° SE2025-07-12 01:49:49.886Z56.724° ENE29.225°2025-07-12 01:52:49.886Z10.507° NNE
5 mins2025-07-12 03:25:49.886Z230.015° WSW2025-07-12 03:27:49.886Z264.717° W22.705°2025-07-12 03:30:49.886Z311.027° NW
|